Regional Weather Roundup
Issued by NWS

Home | Current Version | Previous Version | Graphics & Text | Print | Product List | Glossary On
Versions: 1 2 3 4 5 6 7 8 9 10 11 12 13 14 15 16 17 18 19 20 21 22 23 24 25 26 27 28 29 30 31 32 33 34 35 36 37 38 39 40 41 42 43 44 45 46 47 48 49 50
000
ASUS43 KBIS 302302
RWRND

NORTH DAKOTA REGIONAL WEATHER ROUNDUP
NATIONAL WEATHER SERVICE BISMARCK ND
600 PM CDT TUE JUN 30 2015

NOTE: "FAIR" INDICATES FEW OR NO CLOUDS BELOW 12,000 FEET WITH NO
SIGNIFICANT WEATHER AND/OR OBSTRUCTIONS TO VISIBILITY.


NDZ001>003-009>011-017-010000-
NORTHWEST NORTH DAKOTA

CITY           SKY/WX    TMP DP  RH WIND       PRES   REMARKS
WILLISTON      MOSUNNY   78  57  48 E15G23    29.86F HAZE
MINOT          CLOUDY    69  64  84 CALM      29.90S HAZE
MINOT AFB      PTSUNNY   71  70  99 E6        29.90R FOG
$$

NDZ018>021-031>035-040>046-010000-
SOUTHWEST NORTH DAKOTA

CITY           SKY/WX    TMP DP  RH WIND       PRES   REMARKS
BISMARCK       PTSUNNY   72  65  78 E7        29.90F
DICKINSON      CLOUDY    75  65  70 SE12      29.85F
GARRISON         N/A     69  65  86 E10       29.89F
HETTINGER ARPT MOSUNNY   77  65  66 SE10      29.88F
$$

NDZ004>008-012>016-024-026-027-054-010000-
NORTHEAST NORTH DAKOTA

CITY           SKY/WX    TMP DP  RH WIND       PRES   REMARKS
GRAND FORKS    PTSUNNY   74  57  55 S5        29.91S
GRND FRKS AFB  PTSUNNY   73  59  62 S5        29.93R
DEVILS LAKE    CLOUDY    68  59  73 E7        29.92S
$$

NDZ022-023-025-028>030-036>039-047>053-010000-
SOUTHEAST NORTH DAKOTA

CITY           SKY/WX    TMP DP  RH WIND       PRES   REMARKS
FARGO          CLOUDY    73  61  65 CALM      29.92R
JAMESTOWN      PTSUNNY   71  61  70 E7        29.92R
$$



USA.gov is the U.S. government's official web portal to all federal, state and local government web resources and services.